Terminal Aerodrome Forecast
Issued by NWS St Louis, MO

Home | Current Version | Previous Version | Text Only | Print | Product List | Glossary On
Versions: 1 2 3 4 5 6 7 8 9 10 11 12 13 14 15 16 17 18 19 20 21 22 23 24 25 26 27
000
FTUS43 KLSX 202000 AAA
TAFSTL
TAF AMD
KSTL 202030Z 2021/2124 18010G16KT P6SM SCT250
     FM210100 18007KT P6SM SCT120 BKN250
     FM211200 22008KT P6SM OVC100
     FM211800 22009KT P6SM VCTS OVC050CB
      TEMPO 2120/2124 5SM -SHRA=

USA.gov is the U.S. government's official web portal to all federal, state and local government web resources and services.